TITAN 3C TRANSTAGE DEB, 26777

Orbit data source: Space-Track

TITAN 3C TRANSTAGE DEB, 26777 is space debris in HEO originally from a launch on Tue, 21 Dec 1965 UTC launched from the Air Force Eastern Test Range (AFETR). Debris objects in space refer to the collection of defunct objects orbiting the Earth. Examples of debris include non-operational satellites, rocket bodies, and fragments generated from explosions, collisions, or faulty payload assembly.

Loading next visibility...
Identifier
26777, 1965-108AV
Orbit
HEO
Country
Flag of USUS
Related business
Manufacturer
Unknown
Mission
Spacecraft
Bus & Motor
Unknown
Mass
Unknown
Launch date (UTC)
1965-12-21 (60 years ago)
Launch vehicle
Unknown
Launch site
Air Force Eastern Test Range (AFETR)
Object type
Payload
Rocket body
Debris
Shape & HBR
Unknown shape, 0.2 m
Radar Cross Section
Medium (>0.1 m² and <1 m²)

Expand to show TLE details & history
Last TLE update: 3 days ago

TLE from 3 days ago
0 TITAN 3C TRANSTAGE DEB
1 26777U 65108AV  26034.68059752 -.00000030  00000-0  00000-0 0  9990
2 26777  26.9768 241.9998 6691769 359.7912  10.3474  2.56664563 42616
Epoch: 2026-02-03T16:20Z
TLE epoch observation values (Epoch: 2026-02-03T16:20:03.625Z)
Latitude
23.04194°
Longitude
-80.34006°
Altitude
2,937.527 km
Speed
8.241 km/s
True Right ascension
19h 54m 07s
True Declination
22° 56' 50"
Sunlit
Object was in daylight at epoch
Visualization orbit readout
Latitude
Unknown
Longitude
Unknown
Altitude
Unknown
Speed
Unknown
Apparent Right ascension
Unknown
Apparent Declination
Unknown
Sunlit
N/A
Visualization observer readout
Local Sidereal Time
07:43:50
Azimuth
Unknown
Elevation
Unknown
Doppler factor
Unknown
Orbital elements
Apogee altitude
31,239.427 km
Perigee altitude
1,077.489 km
Semi-major axis
22,536.595 km
Eccentricity
0.66918
Inclination
26.9768°
RAAN
241.9998°
Arg. of periapsis
359.7912°
True anomaly
60.02645°
Mean anomaly
10.3474°
Eccentric anomaly
28.84429°
Mean motion
0.64152 °/min
Orbital period
561.17 mins
BSTAR
0
Loading maneuver chart data...
Computing Atmospheric mass density...

Documentation

Showing up to 5 results
|